User: anonymous   Login
Location: Unspecified
(0.0000°N, 0.0000°E)
Time: 22:58:03
(UTC+00:00)
Language:

A-11 Canister half - Orbit

View from above orbital plane
View from above orbital plane
View from above satellite
View from above satellite

Ground track
Ground track

The orbit data is extracted from the following two-line orbital elements,

1    51U 60009C   18345.78561269 -.00000111  00000-0 -25800-3 0  9999
2    51  47.2133 260.3253 0107158 317.4335  41.8185 12.18271451596589
Epoch (UTC): 11 December 2018 18:51:16
Eccentricity: 0.0107158
inclination: 47.2133°
perigee height: 1514 km
apogee height: 1685 km
right ascension of ascending node: 260.3253°
argument of perigee: 317.4335°
revolutions per day: 12.18271451
mean anomaly at epoch: 41.8185°
orbit number at epoch: 59658

The dashed part of the orbit path shows where the satellite is in the earth's shadow,  

DLR